Tracking 19281 objects as of 16-Nov-2018
HD Live streaming from Space Station
objects crossing your sky now

TOPEX/POSEIDON

Track TOPEX/POSEIDON now!
10-day predictions
TOPEX/POSEIDON is classified as:


NORAD ID: 22076
Int'l Code: 1992-052A
Perigee: 1,338.8 km
Apogee: 1,350.2 km
Inclination: 66.0 °
Period: 112.4 minutes
Semi major axis: 7715 km
RCS: 8.6832 m2 (large)
Launch date: August 10, 1992
Source: United States (US)
Launch site: FRENCH GUIANA (FRGUI)
aabbcc
Your satellite tracking list
Your tracking list is empty




NASA's NSSDC Master Catalog

Two Line Element Set (TLE):
1 22076U 92052A   18319.91446074 -.00000045  00000-0  68382-4 0  9993
2 22076  66.0380 127.4781 0007403 269.8325 247.0305 12.81019037228691
Source of the keplerian elements: AFSPC